Terminal Aerodrome Forecast
Issued by NWS Boise, ID

Home | Current Version | Previous Version | Text Only | Print | Product List | Glossary On
Versions: 1 2 3 4 5 6 7 8 9 10 11 12 13 14 15 16 17 18 19 20 21 22 23 24 25 26 27 28 29 30 31 32 33 34 35 36 37 38 39 40 41 42 43 44 45
000
FTUS45 KBOI 011732
TAFBOI
TAF
KBOI 011732Z 0118/0218 31012KT P6SM SKC
     FM020300 14005KT P6SM SKC=

USA.gov is the U.S. government's official web portal to all federal, state and local government web resources and services.